カタログに戻る

STARLINK-31291

運用中通信VLEO
NORAD 59096·PAYLOAD·🇺🇸 United States

打ち上げ Feb 29, 2024 から Cape Canaveral Space Force Station

Loading…

次のパス (今後24時間)

TLE

最新Source: CelesTrak SupGP

元期: Sep 14, 2026, 20:47 UTC

1 59096C 24041Y   26257.86645833 -.00023514  00000+0 -85190-3 0  2574
2 59096  43.0011 322.2712 0001537 270.4316 114.0317 15.27581318    17

AllMySatでSTARLINK-31291をリアルタイム追跡

Download on the App Store